Date,TemperatureHighF,TemperatureAvgF,TemperatureLowF,DewpointHighF,DewpointAvgF,DewpointLowF,HumidityHigh,HumidityAvg,HumidityLow,PressureMaxIn,PressureMinIn,WindSpeedMaxMPH,WindSpeedAvgMPH,GustSpeedMaxMPH,PrecipitationSumIn
2012-4-11,52.0,47.8,44.0,31.0,25.3,20.0,61,42,29,0.00,40.00,6,1,11,0.00
2012-4-12,58.0,50.1,40.0,35.0,29.7,25.0,77,48,30,0.00,40.00,9,3,19,0.00
2012-4-13,63.0,52.2,34.0,31.0,26.1,22.0,79,39,21,0.00,40.00,5,1,16,0.00
2012-4-14,74.0,58.7,40.0,34.0,28.2,24.0,69,36,16,0.00,40.00,6,1,15,0.00
2012-4-15,80.0,66.1,58.0,53.0,45.7,36.0,61,48,37,0.00,40.00,6,1,17,0.00
2012-4-16,91.0,70.8,57.0,57.0,52.0,42.0,90,57,22,0.00,40.00,4,0,13,0.00
2012-4-17,81.0,73.3,62.0,56.0,40.4,25.0,74,36,14,0.00,40.00,9,1,19,0.00
2012-4-18,62.0,57.3,53.0,37.0,33.2,29.0,56,41,30,0.00,40.00,0,0,0,0.00
2012-4-19,73.0,56.3,49.0,47.0,43.1,38.0,89,64,29,0.00,40.00,0,0,1,0.00
2012-4-20,69.0,54.9,42.0,55.0,45.3,35.0,95,74,30,0.00,40.00,2,0,6,0.00
2012-4-21,78.0,63.3,54.0,58.0,53.0,47.0,93,73,35,0.00,40.00,5,1,18,0.00
2012-4-22,61.0,51.7,49.0,58.0,48.6,43.0,95,89,67,0.00,40.00,11,4,24,0.00
2012-4-23,57.0,50.2,41.0,56.0,43.4,31.0,95,79,53,0.00,40.00,4,0,13,0.00
2012-4-24,63.0,45.9,36.0,35.0,27.9,13.0,89,57,14,0.00,40.00,6,1,25,0.00
2012-4-25,65.0,46.4,33.0,40.0,27.9,16.0,93,56,16,0.00,40.00,4,0,14,0.00
2012-4-26,64.0,49.5,35.0,55.0,42.4,33.0,93,78,52,0.00,40.00,4,0,10,0.00
2012-4-27,57.0,51.7,41.0,55.0,26.5,15.0,93,41,22,0.00,40.00,9,5,22,0.00
2012-4-28,59.0,41.9,30.0,30.0,22.9,16.0,88,53,19,0.00,40.00,6,1,15,0.00
2012-4-29,65.0,48.1,35.0,38.0,22.0,-99.9,92,49,10,0.00,40.00,6,1,15,0.00
2012-4-30,63.0,44.7,31.0,32.0,22.3,7.0,78,47,17,0.00,40.00,5,1,13,0.00
2012-5-1,73.0,62.0,55.0,59.0,51.1,42.0,93,69,46,0.00,40.00,4,1,13,0.00
2012-5-2,58.0,52.1,50.0,53.0,48.1,45.0,92,86,78,0.00,40.00,5,3,14,0.00
2012-5-3,61.0,55.2,51.0,55.0,51.5,48.0,94,88,75,0.00,40.00,3,1,8,0.00
2012-5-4,80.0,63.2,54.0,63.0,56.5,52.0,94,81,44,0.00,40.00,4,1,11,0.00
2012-5-5,66.0,58.6,55.0,61.0,54.6,52.0,93,87,76,0.00,40.00,5,2,12,0.00
2012-5-6,64.0,54.5,48.0,52.0,46.7,-99.9,92,79,36,0.00,40.00,5,2,11,0.00
2012-5-7,70.0,53.7,43.0,53.0,43.2,34.0,94,72,33,0.00,40.00,4,1,14,0.00
2012-5-8,74.0,66.2,56.0,54.0,48.3,42.0,75,54,34,0.00,40.00,8,4,24,0.00
2012-5-9,67.0,63.6,61.0,65.0,61.0,55.0,93,91,74,0.00,40.00,6,1,16,0.00
2012-5-10,67.0,59.0,47.0,63.0,43.7,26.0,93,63,24,0.00,40.00,11,2,22,0.00
2012-5-11,71.0,54.8,41.0,42.0,32.4,21.0,89,51,16,0.00,40.00,8,1,18,0.00
2012-5-12,81.0,69.5,46.0,42.0,33.5,28.0,79,32,15,0.00,40.00,4,0,9,0.00
2012-5-13,84.0,68.6,55.0,53.0,45.3,-99.9,69,47,26,0.00,40.00,1,0,4,0.00
2012-5-14,76.0,67.3,61.0,61.0,54.7,52.0,81,65,45,0.00,40.00,0,0,0,0.00
2012-5-15,72.0,65.1,62.0,70.0,61.4,57.0,93,88,76,0.00,40.00,3,0,8,0.00
2012-5-16,83.0,71.0,62.0,68.0,60.2,48.0,93,72,30,0.00,40.00,3,1,11,0.00
2012-5-17,74.0,64.1,52.0,60.0,37.9,27.0,92,44,19,0.00,40.00,8,1,19,0.00
2012-5-18,71.0,57.4,44.0,52.0,36.9,25.0,94,55,19,0.00,40.00,1,0,4,0.00
2012-5-19,78.0,60.8,43.0,52.0,37.2,29.0,94,51,18,0.00,40.00,2,0,6,0.00
2012-5-20,75.0,62.2,49.0,58.0,44.0,-99.9,92,59,14,0.00,40.00,6,2,14,0.00
2012-5-21,62.0,60.7,59.0,60.0,58.7,57.0,94,93,92,0.00,40.00,5,2,14,0.00
2012-5-22,73.0,65.2,61.0,63.0,59.7,56.0,93,84,57,0.00,40.00,6,2,12,0.00
2012-5-23,80.0,69.7,62.0,68.0,60.8,56.0,93,76,44,0.00,40.00,4,1,12,0.00
2012-5-24,77.0,68.5,65.0,65.0,62.8,61.0,92,83,60,0.00,40.00,6,2,15,0.00
2012-5-25,83.0,70.4,64.0,71.0,63.7,61.0,94,81,48,0.00,40.00,4,2,13,0.00
2012-5-26,90.0,74.4,63.0,71.0,63.8,60.0,93,73,38,0.00,40.00,4,1,9,0.00
2012-5-27,85.0,74.3,68.0,71.0,63.4,-99.9,93,74,48,0.00,40.00,4,1,11,0.00
2012-5-28,91.0,78.9,70.0,68.0,63.1,58.0,89,62,34,0.00,40.00,4,1,11,0.00
2012-5-29,94.0,81.3,71.0,72.0,64.6,58.0,93,61,32,0.00,40.00,0,0,0,0.00
2012-5-30,78.0,72.0,66.0,69.0,64.6,60.0,93,78,53,0.00,40.00,2,0,7,0.00
2012-5-31,83.0,71.0,60.0,66.0,50.5,38.0,93,57,22,0.00,40.00,7,2,15,0.00
2012-6-1,74.0,65.6,55.0,64.0,54.3,47.0,90,69,42,0.00,40.00,7,3,19,0.00
2012-6-2,78.0,68.5,56.0,66.0,51.6,38.0,93,61,29,0.00,40.00,6,2,17,0.00
2012-6-3,79.0,62.6,51.0,57.0,46.7,-99.9,93,64,26,0.00,40.00,9,0,24,0.00
2012-6-4,63.0,57.6,54.0,58.0,51.5,43.0,93,82,52,0.00,40.00,8,2,16,0.00
2012-6-5,67.0,58.5,49.0,54.0,42.9,34.0,92,59,33,0.00,40.00,9,2,14,0.00
2012-6-6,75.0,61.0,47.0,59.0,48.5,38.0,94,68,30,0.00,40.00,9,1,16,0.00
2012-6-7,79.0,64.3,54.0,62.0,52.6,44.0,93,71,30,0.00,40.00,9,1,32,0.00
2012-6-8,84.0,68.3,53.0,63.0,49.7,41.0,93,60,23,0.00,40.00,4,1,11,0.00
2012-6-9,86.0,70.1,57.0,58.0,51.6,46.0,87,56,27,0.00,40.00,1,0,4,0.00
2012-6-10,88.0,74.7,64.0,65.0,57.7,-99.9,93,62,32,0.00,40.00,4,1,14,0.00
2012-6-11,79.0,69.9,64.0,64.0,57.3,48.0,91,67,40,0.00,40.00,3,0,9,0.00
2012-6-12,75.0,68.7,65.0,69.0,64.2,61.0,93,86,65,0.00,40.00,4,1,14,0.00
2012-6-13,70.0,66.9,64.0,67.0,64.0,61.0,93,91,80,0.00,40.00,9,4,17,0.00
2012-6-14,72.0,66.4,58.0,63.0,58.6,55.0,92,78,56,0.00,40.00,7,3,14,0.00
2012-6-15,78.0,65.6,52.0,61.0,46.8,36.0,93,59,24,0.00,40.00,7,2,14,0.00
2012-6-16,79.0,65.2,51.0,58.0,47.4,36.0,93,61,22,0.00,40.00,7,2,15,0.00
2012-6-17,72.0,64.0,55.0,56.0,50.0,-99.9,89,63,45,0.00,40.00,3,0,9,0.00
2012-6-18,74.0,63.4,52.0,56.0,50.6,46.0,93,66,38,0.00,40.00,2,0,9,0.00
2012-6-19,83.0,70.4,60.0,63.0,58.8,52.0,89,69,43,0.00,40.00,1,0,8,0.00
2012-6-20,98.0,86.3,67.0,68.0,64.3,60.0,92,51,30,0.00,40.00,0,0,1,0.00
2012-6-21,98.0,85.5,73.0,71.0,64.3,57.0,89,54,27,0.00,40.00,0,0,4,0.00
2012-6-22,96.0,77.9,69.0,71.0,67.5,59.0,93,74,30,0.00,40.00,0,0,0,0.00
2012-6-23,87.0,75.0,65.0,67.0,56.5,44.0,93,61,23,0.00,40.00,6,2,15,0.00
2012-6-24,89.0,72.9,58.0,66.0,53.9,44.0,92,58,22,0.00,40.00,0,0,1,0.00
2012-6-25,76.0,69.1,63.0,67.0,63.1,56.0,93,83,49,0.00,40.00,6,2,18,0.00
2012-6-26,74.0,63.1,57.0,59.0,46.1,40.0,92,57,30,0.00,40.00,4,2,16,0.00
2012-6-27,84.0,69.4,54.0,49.0,44.3,39.0,81,46,22,0.00,40.00,5,0,14,0.00
2012-6-28,91.0,76.1,58.0,56.0,52.2,49.0,87,48,24,0.00,40.00,1,0,4,0.00
2012-6-29,88.0,73.7,69.0,71.0,62.3,55.0,91,69,46,0.00,40.00,2,0,15,0.00
2012-12-18,58.0,49.8,42.0,48.0,37.0,28.0,85,62,46,0.00,40.00,11,6,24,0.00
2012-12-19,49.0,42.1,35.0,29.0,22.2,19.0,61,46,30,0.00,40.00,14,6,28,0.00
2012-12-20,50.0,38.7,28.0,40.0,27.3,21.0,85,64,47,0.00,40.00,6,2,17,0.00
2012-12-21,57.0,45.4,36.0,55.0,32.5,-99.9,93,66,44,0.00,40.00,12,6,34,0.00
2012-12-22,41.0,37.9,35.0,26.0,16.8,11.0,70,43,30,0.00,40.00,17,8,34,0.00
2012-12-23,43.0,35.7,29.0,18.0,15.3,12.0,59,43,28,0.00,40.00,7,2,16,0.00
2012-12-24,41.0,32.5,23.0,35.0,21.3,14.0,94,67,34,0.00,40.00,5,1,9,0.00
2012-12-25,43.0,38.4,34.0,39.0,30.0,20.0,94,74,51,0.00,40.00,10,4,18,0.00
2012-12-26,47.0,36.3,28.0,46.0,30.5,21.0,95,80,59,0.00,40.00,16,6,32,0.00
2012-12-27,48.0,39.0,31.0,46.0,30.4,14.0,95,74,47,0.00,40.00,17,9,32,0.00
2012-12-28,39.0,32.6,27.0,21.0,16.3,13.0,74,51,40,0.00,40.00,11,5,27,0.00
2012-12-29,37.0,32.7,27.0,35.0,28.7,20.0,94,86,74,0.00,40.00,7,3,18,0.00
2012-12-30,37.0,32.6,30.0,28.0,11.5,3.0,86,43,28,0.00,40.00,19,8,36,0.00
2012-12-31,40.0,32.7,27.0,18.0,12.4,3.0,52,43,31,0.00,40.00,6,2,17,0.00
2013-1-1,42.0,38.7,31.0,23.0,20.0,10.0,56,46,40,0.00,40.00,8,4,19,0.00